Terminal Aerodrome Forecast
Issued by NWS

Home | Current Version | Previous Version | Text Only | Print | Product List | Glossary On
Versions: 1 2 3 4 5 6 7 8 9 10 11 12 13 14 15 16 17 18 19 20 21 22 23 24 25 26 27 28 29 30 31 32 33 34 35 36 37 38 39 40 41 42 43 44 45 46 47 48 49 50
000
FTUS43 KMKX 231723
TAFUES
TAF
KUES 231723Z 2318/2418 33004KT 1SM BR OVC002
     FM232000 32004KT 2SM BR OVC004
     FM240200 VRB03KT 4SM BR BKN003
     FM241600 00000KT 3SM BR BKN008
     FM241700 00000KT 5SM BR BKN010=

USA.gov is the U.S. government's official web portal to all federal, state and local government web resources and services.